Car Nicobar Air Force Station


Codes: VOCX/CBD
Name: Car Nicobar Air Force Station
City:
Country: India
Elevation: 5 ft.
Wikipedia:

Photos at Car Nicobar Air Force Station


   Photos courtesy of SpottingLog. You can add your own sightings and photos by signing up for a free trial today.



No photos found.

Weather at Car Nicobar Air Force Station


Time (UTC)DescriptionTempratureWindCloud coverageVisibilityPressureHumidity
23-May-2024 21:00Light Rain29°C27 mph, SW100%10000m1003hPa80%
24-May-2024 00:00Light Rain29°C25 mph, SW100%10000m1003hPa80%
24-May-2024 03:00Light Rain29°C25 mph, SW100%10000m1004hPa82%
24-May-2024 06:00Light Rain29°C27 mph, SW100%7886m1004hPa81%
24-May-2024 09:00Light Rain29°C27 mph, SW100%10000m1003hPa82%
24-May-2024 12:00Light Rain29°C27 mph, SW100%10000m1004hPa82%
24-May-2024 15:00Light Rain29°C29 mph, SW100%10000m1006hPa82%
24-May-2024 18:00Light Rain29°C29 mph, SW100%8952m1005hPa83%
24-May-2024 21:00Light Rain29°C29 mph, SW100%10000m1003hPa81%
25-May-2024 00:00Light Rain29°C29 mph, SW100%10000m1004hPa80%
25-May-2024 03:00Light Rain29°C29 mph, SW100%10000m1006hPa81%
25-May-2024 06:00Light Rain29°C29 mph, SW100%10000m1005hPa79%
25-May-2024 09:00Light Rain29°C27 mph, SW100%10000m1004hPa78%
25-May-2024 12:00Light Rain29°C25 mph, SW100%10000m1006hPa79%
25-May-2024 15:00Light Rain29°C25 mph, SW100%10000m1008hPa79%
25-May-2024 18:00Light Rain29°C27 mph, SW99%10000m1007hPa78%
25-May-2024 21:00Light Rain29°C27 mph, SW93%10000m1005hPa77%
26-May-2024 00:00Light Rain29°C27 mph, SW97%10000m1006hPa78%
26-May-2024 03:00Light Rain29°C27 mph, SW100%10000m1007hPa80%
26-May-2024 06:00Light Rain29°C25 mph, SW100%10000m1007hPa79%
26-May-2024 09:00Light Rain29°C22 mph, SW100%10000m1005hPa79%
26-May-2024 12:00Light Rain29°C22 mph, SW100%10000m1006hPa79%
26-May-2024 15:00Light Rain29°C25 mph, SW100%4553m1008hPa79%
26-May-2024 18:00Light Rain29°C25 mph, SW97%10000m1008hPa78%
26-May-2024 21:00Light Rain29°C25 mph, SW100%10000m1006hPa79%
27-May-2024 00:00Light Rain29°C25 mph, SW100%10000m1007hPa77%
27-May-2024 03:00Light Rain29°C27 mph, SW91%10000m1009hPa77%
27-May-2024 06:00Light Rain29°C25 mph, SW95%10000m1007hPa77%
27-May-2024 09:00Light Rain29°C27 mph, SW100%9724m1005hPa78%
27-May-2024 12:00Light Rain29°C25 mph, SW100%10000m1006hPa79%
27-May-2024 15:00Light Rain29°C25 mph, SW100%10000m1008hPa78%
27-May-2024 18:00Light Rain29°C25 mph, SW100%8888m1007hPa78%
27-May-2024 21:00Light Rain29°C25 mph, SW100%10000m1005hPa80%
28-May-2024 00:00Light Rain29°C22 mph, SW100%10000m1006hPa80%
28-May-2024 03:00Light Rain29°C22 mph, SW100%10000m1007hPa81%
28-May-2024 06:00Light Rain29°C25 mph, SW100%10000m1006hPa81%
28-May-2024 09:00Light Rain29°C22 mph, SW100%10000m1004hPa81%
28-May-2024 12:00Light Rain29°C20 mph, SW100%10000m1005hPa82%
28-May-2024 15:00Moderate Rain29°C18 mph, SW100%10000m1006hPa82%
28-May-2024 18:00Moderate Rain28°C20 mph, SW100%3083m1005hPa86%